| time (UTC) | temp F | wind direction | speed MPH | gust MPH | rain 1hr in | rain 24hr in | rain mn in | humidity % | barometer mb |
| 20260510010013 | 58 | 351 | 0.0 | 0.0 | 0.00 | 0.00 | 0.00 | 79 | 1032.1 |
| 20260510004509 | 57 | 9 | 0.0 | 0.0 | 0.00 | 0.00 | 0.00 | 81 | 1032.1 |
| 20260510003004 | 56 | 352 | 0.0 | 1.0 | 0.00 | 0.00 | 0.00 | 84 | 1032.1 |
| 20260510001502 | 55 | 355 | 0.0 | 1.0 | 0.00 | 0.00 | 0.00 | 85 | 1032.1 |
| 20260510000107 | 55 | 41 | 0.0 | 1.0 | 0.00 | 0.00 | 0.00 | 82 | 1032.1 |
| 20260509234544 | 54 | 41 | 0.0 | 1.0 | 0.00 | 0.00 | 0.00 | 82 | 1032.1 |
| 20260509233027 | 54 | 159 | 0.0 | 0.0 | 0.00 | 0.00 | 0.00 | 80 | 1032.0 |
| 20260509231552 | 53 | 159 | 0.0 | 1.0 | 0.00 | 0.00 | 0.00 | 81 | 1032.0 |
| 20260509230051 | 53 | 170 | 0.0 | 1.0 | 0.00 | 0.00 | 0.00 | 80 | 1032.0 |
| 20260509224520 | 53 | 177 | 0.0 | 0.0 | 0.00 | 0.00 | 0.00 | 80 | 1031.9 |
| 20260509223018 | 52 | 177 | 0.0 | 0.0 | 0.00 | 0.00 | 0.00 | 80 | 1031.8 |
| 20260509221548 | 52 | 177 | 0.0 | 0.0 | 0.00 | 0.00 | 0.00 | 81 | 1031.6 |
| 20260509220044 | 52 | 119 | 0.0 | 0.0 | 0.00 | 0.00 | 0.00 | 81 | 1031.4 |
| 20260509214537 | 0 | 0.0 | 0.0 | 0.00 | 0.00 | 0.00 | 1031.2 | ||
| 20260509213038 | 0 | 0.0 | 0.0 | 0.00 | 0.00 | 0.00 | 1031.0 | ||
| 20260509211527 | 0 | 0.0 | 0.0 | 0.00 | 0.00 | 0.00 | 1030.7 | ||
| 20260509210031 | 0 | 0.0 | 0.0 | 0.00 | 0.00 | 0.00 | 1030.6 | ||
| 20260509204524 | 0 | 0.0 | 0.0 | 0.00 | 0.00 | 0.00 | 1030.4 | ||
| 20260509203013 | 0 | 0.0 | 0.0 | 0.00 | 0.00 | 0.00 | 1030.3 | ||
| 20260509201505 | 0 | 0.0 | 0.0 | 0.00 | 0.00 | 0.00 | 1030.2 | ||
| 20260509200001 | 0 | 0.0 | 0.0 | 0.00 | 0.00 | 0.00 | 1030.1 | ||
| 20260509194557 | 0 | 0.0 | 0.0 | 0.00 | 0.00 | 0.00 | 1030.0 | ||
| 20260509193051 | 0 | 0.0 | 0.0 | 0.00 | 0.00 | 0.00 | 1029.9 | ||
| 20260509191546 | 0 | 0.0 | 0.0 | 0.00 | 0.00 | 0.00 | 1029.8 | ||
| 20260509190044 | 0 | 0.0 | 0.0 | 0.00 | 0.00 | 0.00 | 1029.5 | ||
| 20260509184556 | 0 | 0.0 | 0.0 | 0.00 | 0.00 | 0.00 | 1029.4 | ||
| 20260509183041 | 0 | 0.0 | 0.0 | 0.00 | 0.00 | 0.00 | 1029.3 | ||
| 20260509181545 | 0 | 0.0 | 0.0 | 0.00 | 0.00 | 0.00 | 1029.2 | ||
| 20260509180033 | 0 | 0.0 | 0.0 | 0.00 | 0.00 | 0.00 | 1028.9 | ||
| 20260509174535 | 0 | 0.0 | 0.0 | 0.00 | 0.00 | 0.00 | 1029.1 | ||
| 20260509173023 | 0 | 0.0 | 0.0 | 0.00 | 0.00 | 0.00 | 1029.2 | ||
| 20260509171519 | 0 | 0.0 | 0.0 | 0.00 | 0.00 | 0.00 | 1029.1 | ||
| 20260509170015 | 52 | 119 | 0.0 | 0.0 | 0.00 | 0.00 | 0.00 | 81 | 1029.1 |
| 20260509164512 | 52 | 119 | 0.0 | 0.0 | 0.00 | 0.00 | 0.00 | 81 | 1029.3 |
| 20260509163008 | 52 | 118 | 0.0 | 0.0 | 0.00 | 0.00 | 0.00 | 81 | 1029.4 |
| 20260509161507 | 52 | 118 | 0.0 | 0.0 | 0.00 | 0.00 | 0.00 | 81 | 1029.4 |
| 20260509160007 | 52 | 118 | 0.0 | 0.0 | 0.00 | 0.00 | 0.00 | 81 | 1029.4 |
| 20260509154508 | 52 | 119 | 0.0 | 0.0 | 0.00 | 0.00 | 0.00 | 81 | 1029.4 |
| 20260509153004 | 52 | 119 | 0.0 | 0.0 | 0.00 | 0.00 | 0.00 | 81 | 1029.5 |
| 20260509151501 | 52 | 118 | 0.0 | 0.0 | 0.00 | 0.00 | 0.00 | 81 | 1029.6 |
| 20260509150100 | 52 | 119 | 0.0 | 0.0 | 0.00 | 0.00 | 0.00 | 81 | 1029.6 |
| 20260509144611 | 52 | 119 | 0.0 | 0.0 | 0.00 | 0.00 | 0.00 | 81 | 1029.6 |
| 20260509143119 | 52 | 119 | 0.0 | 0.0 | 0.00 | 0.00 | 0.00 | 82 | 1029.5 |
| 20260509141554 | 52 | 119 | 0.0 | 0.0 | 0.00 | 0.00 | 0.00 | 82 | 1029.5 |
| 20260509140104 | 52 | 119 | 0.0 | 0.0 | 0.00 | 0.00 | 0.00 | 82 | 1029.5 |
| 20260509134607 | 52 | 119 | 0.0 | 0.0 | 0.00 | 0.00 | 0.00 | 82 | 1029.5 |
| 20260509133022 | 52 | 119 | 0.0 | 0.0 | 0.00 | 0.00 | 0.00 | 82 | 1029.6 |
| 20260509131520 | 52 | 120 | 0.0 | 0.0 | 0.00 | 0.00 | 0.00 | 82 | 1029.6 |
| 20260509130058 | 52 | 119 | 0.0 | 0.0 | 0.00 | 0.00 | 0.00 | 82 | 1029.6 |
| 20260509124550 | 52 | 120 | 0.0 | 0.0 | 0.00 | 0.00 | 0.00 | 82 | 1029.5 |
| 20260509123101 | 52 | 119 | 0.0 | 0.0 | 0.00 | 0.00 | 0.00 | 82 | 1029.6 |
| 20260509121602 | 52 | 120 | 0.0 | 1.0 | 0.00 | 0.00 | 0.00 | 82 | 1029.6 |
| 20260509120045 | 52 | 120 | 0.0 | 0.0 | 0.00 | 0.00 | 0.00 | 82 | 1029.6 |
| 20260509114543 | 52 | 119 | 0.0 | 0.0 | 0.00 | 0.00 | 0.00 | 82 | 1029.6 |
| 20260509113022 | 52 | 119 | 0.0 | 0.0 | 0.00 | 0.00 | 0.00 | 82 | 1029.4 |
| 20260509111513 | 52 | 119 | 0.0 | 0.0 | 0.00 | 0.00 | 0.00 | 82 | 1029.3 |
| 20260509110007 | 52 | 119 | 0.0 | 1.0 | 0.00 | 0.00 | 0.00 | 82 | 1029.3 |
| 20260509104507 | 52 | 119 | 0.0 | 0.0 | 0.00 | 0.00 | 0.00 | 82 | 1029.2 |
| 20260509103006 | 52 | 120 | 0.0 | 0.0 | 0.00 | 0.00 | 0.00 | 82 | 1029.2 |
| 20260509101506 | 52 | 119 | 0.0 | 1.0 | 0.00 | 0.00 | 0.00 | 82 | 1029.2 |
| 20260509100040 | 52 | 109 | 0.0 | 2.0 | 0.00 | 0.00 | 0.00 | 82 | 1029.2 |
| 20260509094538 | 52 | 130 | 0.0 | 0.0 | 0.00 | 0.00 | 0.00 | 82 | 1029.1 |
| 20260509093030 | 52 | 130 | 0.0 | 1.0 | 0.00 | 0.00 | 0.00 | 82 | 1029.1 |
| 20260509091537 | 52 | 119 | 0.0 | 1.0 | 0.00 | 0.00 | 0.00 | 83 | 1028.8 |
| 20260509090026 | 53 | 119 | 0.0 | 2.0 | 0.00 | 0.00 | 0.00 | 83 | 1028.8 |
| 20260509084525 | 53 | 106 | 0.0 | 1.0 | 0.00 | 0.00 | 0.00 | 83 | 1028.5 |
| 20260509083124 | 54 | 106 | 0.0 | 0.0 | 0.00 | 0.00 | 0.00 | 83 | 1028.5 |
| 20260509081610 | 55 | 106 | 0.0 | 1.0 | 0.00 | 0.00 | 0.00 | 83 | 1028.3 |
| 20260509080057 | 55 | 106 | 0.0 | 0.0 | 0.00 | 0.00 | 0.00 | 84 | 1028.2 |
| 20260509074550 | 56 | 106 | 0.0 | 1.0 | 0.00 | 0.00 | 0.00 | 84 | 1028.0 |
| 20260509073056 | 56 | 106 | 0.0 | 1.0 | 0.00 | 0.00 | 0.00 | 84 | 1028.0 |
| 20260509071556 | 57 | 332 | 0.0 | 0.0 | 0.00 | 0.00 | 0.00 | 85 | 1027.7 |
| 20260509070049 | 58 | 332 | 0.0 | 1.0 | 0.00 | 0.00 | 0.00 | 85 | 1027.6 |
| 20260509064558 | 58 | 331 | 0.0 | 1.0 | 0.00 | 0.00 | 0.00 | 85 | 1027.6 |
| 20260509063046 | 59 | 317 | 0.0 | 0.0 | 0.00 | 0.00 | 0.00 | 84 | 1027.5 |
| 20260509061544 | 60 | 317 | 0.0 | 0.0 | 0.00 | 0.00 | 0.00 | 84 | 1027.5 |
| 20260509060043 | 60 | 317 | 0.0 | 0.0 | 0.00 | 0.00 | 0.00 | 84 | 1027.3 |
| 20260509054548 | 60 | 317 | 0.0 | 1.0 | 0.00 | 0.00 | 0.00 | 84 | 1027.3 |
| 20260509053043 | 61 | 27 | 0.0 | 0.0 | 0.00 | 0.00 | 0.00 | 84 | 1027.4 |
| 20260509051540 | 61 | 27 | 0.0 | 1.0 | 0.00 | 0.00 | 0.00 | 84 | 1027.3 |
| 20260509050039 | 60 | 30 | 0.0 | 1.0 | 0.00 | 0.00 | 0.00 | 83 | 1027.4 |
| 20260509044534 | 60 | 10 | 0.0 | 1.0 | 0.00 | 0.00 | 0.00 | 85 | 1027.4 |
| 20260509043033 | 60 | 321 | 0.0 | 1.0 | 0.00 | 0.00 | 0.00 | 85 | 1027.4 |
| 20260509041553 | 60 | 184 | 0.0 | 2.0 | 0.00 | 0.00 | 0.00 | 84 | 1027.4 |
| 20260509040030 | 59 | 243 | 0.0 | 4.0 | 0.00 | 0.00 | 0.00 | 80 | 1027.2 |
| 20260509034524 | 59 | 292 | 0.0 | 2.0 | 0.00 | 0.00 | 0.00 | 78 | 1027.3 |
| 20260509033021 | 57 | 355 | 0.0 | 2.0 | 0.00 | 0.00 | 0.00 | 79 | 1027.4 |
| 20260509031526 | 58 | 164 | 0.0 | 1.0 | 0.00 | 0.00 | 0.00 | 79 | 1027.6 |
| 20260509030018 | 57 | 244 | 0.0 | 2.0 | 0.00 | 0.00 | 0.00 | 79 | 1027.7 |
| 20260509024547 | 57 | 37 | 0.0 | 1.0 | 0.00 | 0.00 | 0.00 | 79 | 1027.9 |
| 20260509023104 | 56 | 319 | 0.0 | 1.0 | 0.00 | 0.00 | 0.00 | 79 | 1028.1 |
| 20260509021543 | 56 | 315 | 0.0 | 2.0 | 0.00 | 0.00 | 0.00 | 80 | 1028.3 |
| 20260509020052 | 56 | 328 | 0.0 | 1.0 | 0.00 | 0.00 | 0.00 | 79 | 1028.4 |
| 20260509014541 | 55 | 327 | 0.0 | 1.0 | 0.00 | 0.00 | 0.00 | 80 | 1028.5 |
| 20260509013044 | 55 | 85 | 0.0 | 1.0 | 0.00 | 0.00 | 0.00 | 80 | 1028.6 |
| 20260509011504 | 54 | 20 | 0.0 | 1.0 | 0.00 | 0.00 | 0.00 | 80 | 1028.8 |